Flag for Germany Weather past 2 weeks in Ilmenau, Thuringia, Germany

Now
39 °F

Partly sunny.


Feels Like: 31 °F
Forecast: 30 / 35 °F
Wind: 15 mph from Southwest

Location: Erfurt-Bindersleben

Current Time: Mar 4, 2015 at 12:54:52 PM

Latest Report: Mar 4, 2015 at 12:20 PM


Visibility: N/A

Pressure: 30.21 "Hg

Humidity: 70%

Dew point: 30 °F

Location of IlmenauLocation

Historic Weather in Ilmenau — Graph

°F

Ilmenau temperature yesterday

Maximum temperature yesterday: 46 °F (at 2:20 PM)
Minimum temperature yesterday: 32 °F (at 12:50 AM)
Average temperature yesterday: 38 °F

Past Weeks' High & Low Weather Summary

 TemperatureHumidityPressure
High48 °F (Feb 21, 1:20 PM)100% (Feb 17, 11:20 AM)30.72 "Hg (Feb 17, 11:20 AM)
Low23 °F (Feb 19, 4:50 AM)43% (Feb 26, 1:50 PM)29.39 "Hg (Feb 23, 3:50 PM)
Average36 °F82%29.94 "Hg
* Reported Feb 17 11:20 AM — Mar 4 11:50 AM, Ilmenau, Weather by CustomWeather, © 2015

Note: Actual official high and low records may vary slightly from our data, if they occured in-between our weather recording intervals... More about our weather records

Advertising

Ilmenau weather history for previous 24 hours

 ConditionsComfort  
Time TempWeatherWind HumidityBarometerVisibility
11:50 AM
Wed, Mar 4
37 °FPartly sunny.20 mph75%30.18 "HgN/A
11:20 AM37 °FScattered clouds.20 mph81%30.18 "HgN/A
10:50 AM39 °FScattered clouds.21 mph75%30.18 "HgN/A
10:20 AM37 °FPassing clouds.16 mph81%30.18 "HgN/A
9:50 AM37 °FPassing clouds.15 mph81%30.18 "HgN/A
9:20 AM36 °FPassing clouds.14 mph87%30.18 "HgN/A
8:50 AM34 °FSunny.12 mph93%30.15 "Hg10 mi
8:20 AM34 °FSunny.12 mph87%30.15 "Hg10 mi
7:50 AM32 °FPassing clouds.13 mph93%30.12 "HgN/A
7:20 AM32 °FPassing clouds.8 mph93%30.12 "HgN/A
6:50 AM30 °FPassing clouds.7 mph100%30.12 "HgN/A
6:20 AM32 °FPassing clouds.8 mph93%30.12 "HgN/A
5:50 AM32 °FPassing clouds.10 mph100%30.09 "HgN/A
5:20 AM32 °FPassing clouds.10 mph100%30.09 "HgN/A
4:50 AM32 °FPassing clouds.9 mph100%30.09 "HgN/A
4:20 AM32 °FSnow flurries. Passing clouds.12 mph100%30.09 "HgN/A
3:50 AM32 °FSnow showers. Partly cloudy.15 mph100%30.07 "Hg1 mi
3:20 AM34 °FClear.13 mph93%30.07 "Hg10 mi
2:50 AM34 °FClear.12 mph93%30.04 "Hg10 mi
2:20 AM34 °FClear.10 mph93%30.04 "Hg10 mi
1:50 AM34 °FPassing clouds.8 mph100%30.04 "HgN/A
1:20 AM36 °FPassing clouds.7 mph93%30.04 "HgN/A
12:50 AM36 °FPartly cloudy.10 mph93%30.04 "HgN/A
12:20 AM36 °FPassing clouds.12 mph93%30.01 "HgN/A
11:50 PM
Tue, Mar 3
36 °FPassing clouds.13 mph93%30.01 "HgN/A
11:20 PM36 °FPassing clouds.10 mph100%29.98 "HgN/A
10:50 PM34 °FLight rain. Passing clouds.14 mph100%30.01 "HgN/A
10:20 PM34 °FSnow flurries. Passing clouds.15 mph100%29.98 "HgN/A
9:50 PM34 °FSnow showers. Passing clouds.17 mph100%29.98 "Hg1 mi
9:20 PM34 °FRain showers. Passing clouds.21 mph93%29.98 "Hg1 mi
8:50 PM41 °FSprinkles. Passing clouds.29 mph81%29.95 "HgN/A
8:20 PM43 °FPassing clouds.21 mph66%29.92 "HgN/A
7:50 PM45 °FClear.22 mph57%29.92 "Hg10 mi
7:20 PM43 °FClear.22 mph61%29.92 "Hg10 mi
6:50 PM43 °FPassing clouds.21 mph61%29.92 "HgN/A
6:20 PM43 °FClear.18 mph57%29.92 "Hg10 mi
5:50 PM45 °FBroken clouds.20 mph53%29.95 "HgN/A
5:20 PM45 °FBroken clouds.18 mph53%29.95 "HgN/A
4:50 PM45 °FBroken clouds.20 mph53%29.95 "HgN/A
4:20 PM45 °FPartly sunny.21 mph49%29.98 "HgN/A
3:50 PM46 °FScattered clouds.20 mph46%29.98 "HgN/A
3:20 PM46 °FScattered clouds.23 mph43%30.01 "HgN/A
2:50 PM45 °FPartly sunny.20 mph46%30.01 "HgN/A
2:20 PM46 °FScattered clouds.20 mph43%30.01 "HgN/A
1:50 PM45 °FPassing clouds.20 mph49%30.04 "HgN/A
1:20 PM45 °FPassing clouds.17 mph57%30.04 "HgN/A
12:50 PM43 °FPassing clouds.23 mph61%30.07 "HgN/A
12:20 PM43 °FPassing clouds.22 mph61%30.07 "HgN/A
Weather by CustomWeather, © 2015

See weather overviewHow to use our weather pages